Lid_Strength_Index
4 4 4 4 4 4 4 3 3 3 4 3 3 3 3 3 3 9 12 11 7 4 5 9 10 10 10 11 9 9 11 14 13 13 13 15 15 16 15 15 16 16 16 16 14
5 5 4 4 4 4 4 4 3 3 3 3 2 3 3 3 8 12 9 6 5 5 10 12 11 11 13 12 11 10 12 12 12 14 15 14 14 15 15 16 17 17 16 15 14
5 5 5 4 5 4 4 4 4 4 3 3 2 2 3 4 9 12 7 6 6 6 10 12 12 11 13 12 12 13 12 13 14 13 14 14 15 15 15 16 15 16 17 16 15
5 5 5 5 5 4 4 4 4 4 5 4 3 3 3 7 14 13 7 7 6 10 10 12 12 13 14 13 13 13 15 14 14 14 14 14 13 15 15 16 15 15 16 16 16
6 5 5 5 5 4 4 4 4 5 5 4 3 3 6 11 11 12 8 10 11 11 12 12 12 12 14 14 14 15 15 15 15 14 16 14 15 16 17 17 17 16 15 16 16
5 5 5 5 5 5 5 4 4 5 5 5 4 4 10 14 12 12 13 12 12 12 12 12 12 12 14 15 15 15 15 16 15 15 16 15 16 15 17 16 16 16 16 17 16
5 5 5 5 5 5 5 5 5 5 6 5 4 6 12 13 13 13 13 13 12 12 12 12 12 12 13 15 14 15 17 17 17 17 17 16 17 16 17 16 16 15 15 15 15
5 5 5 5 5 5 5 5 5 6 6 6 6 13 15 12 13 13 13 12 12 12 11 11 11 12 14 14 15 16 17 19 18 17 17 17 19 17 17 17 17 17 17 16 15
5 5 5 5 5 5 5 5 5 6 6 7 12 14 17 10 13 13 14 14 13 12 12 11 11 14 14 17 18 19 20 19 18 18 18 18 20 17 17 16 17 17 17 16 16
5 5 5 6 5 5 5 6 6 10 11 10 12 16 15 16 14 13 14 13 13 12 12 13 15 17 17 18 21 20 20 19 19 19 19 20 19 18 16 16 16 17 17 17 16
5 5 6 6 5 5 9 12 14 15 15 17 17 17 15 14 13 14 14 14 13 13 17 16 18 19 18 18 19 19 20 20 20 20 20 19 20 19 18 17 17 17 17 17 16
5 5 6 6 5 5 11 14 14 14 18 16 16 16 15 15 16 14 13 15 15 17 17 17 20 18 17 18 18 19 20 21 20 19 20 21 20 19 19 19 17 16 17 17 17
6 5 6 6 5 10 12 12 12 13 18 17 16 16 16 15 17 16 14 15 16 17 18 18 19 18 18 19 18 20 19 20 20 20 20 21 20 19 19 18 17 16 16 16 16
5 5 6 6 10 12 13 11 11 12 21 18 18 17 15 14 17 14 14 15 17 18 18 20 19 18 19 18 18 19 19 19 19 20 21 21 22 21 19 19 17 16 16 16 16
6 6 6 6 12 13 12 11 11 13 27 18 18 14 15 16 17 16 15 16 19 19 19 20 21 20 19 19 18 19 18 19 19 20 22 23 23 21 20 19 18 17 16 16 16
6 6 6 7 11 12 10 11 13 21 26 22 19 19 18 18 18 17 17 16 18 19 20 22 20 20 19 18 18 18 18 18 19 20 25 23 22 21 20 18 18 17 16 16 16
7 7 8 9 13 11 11 13 22 27 19 22 21 19 19 20 19 19 19 19 20 22 22 21 21 20 18 19 18 18 19 23 24 27 24 23 23 20 18 18 17 16 17 16 16
7 9 10 11 11 10 12 18 28 24 24 19 19 19 20 19 20 20 20 21 20 19 22 22 23 21 19 19 19 19 19 22 26 25 23 21 23 19 18 18 17 17 16 16 16
6 11 12 11 10 11 15 27 23 21 19 20 19 21 23 20 21 21 22 23 20 19 19 23 22 20 19 19 19 20 21 19 25 27 26 22 20 17 17 17 18 17 17 17 17
11 13 13 10 10 12 19 21 21 18 18 19 20 20 27 24 22 22 21 20 19 17 18 19 23 20 20 20 20 20 19 21 23 27 27 23 24 20 18 18 17 18 17 17 17
12 14 13 10 11 16 21 23 21 17 17 19 19 24 22 24 22 24 22 20 19 19 17 21 20 23 21 23 21 22 22 22 21 23 25 26 22 19 17 16 16 17 17 17 16
13 18 12 11 17 26 25 22 16 17 17 17 18 19 21 21 24 26 23 20 19 18 18 18 22 26 24 22 21 22 21 20 22 24 25 24 23 18 17 16 16 16 16 17 16
13 15 13 13 23 27 23 19 17 18 18 17 18 18 18 20 23 21 21 19 19 18 18 18 25 30 25 24 23 25 21 19 21 22 26 25 21 18 18 18 17 16 17 16 16
13 17 18 15 18 20 20 19 19 17 17 17 18 18 19 20 20 23 20 19 18 17 13 15 27 24 23 22 23 27 23 19 22 27 24 22 21 19 18 18 18 17 16 17 16
12 15 15 20 19 18 16 17 18 18 18 17 19 19 20 21 22 22 21 21 19 16 16 18 24 28 27 22 24 25 26 21 22 19 21 19 18 18 17 17 16 16 17 17 17
13 14 15 19 19 17 15 17 17 16 18 20 19 18 18 18 18 19 20 21 20 21 20 25 27 30 28 21 21 25 25 23 20 20 21 20 20 17 17 17 17 17 17 17 17
10 11 11 12 16 17 17 16 15 13 16 15 17 17 19 18 17 18 18 18 20 21 21 24 27 28 28 22 23 24 23 24 22 24 18 21 16 17 18 17 16 17 17 16 17